Location: Unspecified
(0.0000°N, 0.0000°E)
Time: 10:53:35
(UTC+00:00)

Hubble Space Telescope - Pass Details

Date: 23 May 2020
Orbit: 536 x 540 km, 28.5° (Epoch: 30 May)

Event Time Altitude Azimuth Distance (km) Brightness Sun altitude
Exits shadow 04:25:58 67° 284° (WNW) 577 0.6 -21.2°
Maximum altitude 04:26:28 83° 212° (SSW) 538 0.6 -21.1°
Drops below altitude 10° 04:30:35 10° 122° (ESE) 1,778 3.9 -20.1°
Sets 04:32:51 0° 122° (ESE) 2,670 4.8 -19.6°
